Wetbulb
57.42 55.20 53.24 54.21 54.32 54.12 53.85 53.08 52.20 55.14 56.65 57.00 57.27 58.67 60.88 63.62 67.27 67.05 67.94 68.70 69.28 69.96 71.80 72.66 73.42 74.24 74.66 75.29 75.95 76.47 76.45 77.19 77.15 75.30 75.61 75.71 72.61 77.31 76.42 75.54 76.03 76.85 77.17 76.90
54.28 51.51 55.51 55.00 54.35 53.64 53.81 52.36 52.39 54.63 57.28 56.54 58.36 58.21 61.11 64.03 65.11 67.28 67.36 68.35 69.13 69.59 70.85 72.18 73.05 73.64 74.10 74.84 75.53 76.48 76.84 77.02 77.39 77.05 76.73 75.46 74.93 75.71 75.79 75.43 76.18 76.76 77.14 77.44
51.96 53.28 54.80 53.71 53.62 52.95 53.81 52.54 52.38 52.59 55.42 58.51 58.53 56.61 59.34 62.60 65.51 67.31 68.28 69.11 69.65 69.77 69.53 70.93 72.08 73.02 73.95 74.42 75.27 76.12 76.96 77.45 77.59 77.44 77.77 77.47 75.58 76.72 76.31 74.65 75.06 76.00 76.40 76.68
52.83 54.85 53.70 53.43 52.80 53.97 51.81 54.39 53.45 53.50 53.55 51.10 57.96 50.15 57.45 60.76 62.29 65.30 67.01 68.39 68.93 69.69 70.20 70.36 71.20 72.27 73.24 74.07 75.48 76.39 77.02 77.27 76.19 77.76 76.73 75.62 75.79 73.02 73.89 74.16 74.43 75.21 76.23 76.69
52.65 52.96 52.77 52.32 53.77 54.97 53.20 55.62 55.49 55.23 53.44 53.16 54.08 52.38 56.03 60.47 59.33 61.70 63.83 66.87 68.96 70.02 70.36 69.57 70.42 72.14 73.25 73.66 74.81 76.20 77.15 77.53 77.59 77.53 77.26 76.46 74.79 73.70 74.24 74.80 76.61 76.28 77.36 77.37
55.15 57.30 55.91 55.72 56.37 56.14 56.43 55.24 55.32 55.43 53.66 49.27 52.40 52.51 52.71 56.68 59.81 61.87 64.17 65.45 66.67 69.21 70.24 70.09 71.11 72.46 73.05 73.59 72.80 74.19 76.39 77.10 77.54 77.44 76.81 75.82 74.74 75.45 73.97 74.18 75.77 74.09 75.03 74.65
54.42 54.81 56.62 56.97 54.80 56.67 55.32 53.24 48.47 47.93 48.28 48.86 52.91 51.52 52.65 58.88 61.35 62.35 64.42 66.03 66.20 68.44 69.24 69.72 70.48 71.68 72.92 73.77 73.88 74.64 75.86 75.76 76.96 77.12 76.28 75.62 76.04 76.13 75.62 74.51 74.15 74.40 74.24 73.20
51.52 49.11 54.37 56.22 55.37 54.10 54.35 53.34 48.67 43.56 46.58 49.01 53.24 50.23 54.29 60.09 62.20 64.08 66.88 67.09 66.14 67.72 68.81 69.15 70.86 71.94 72.58 73.19 74.35 74.60 72.95 75.93 76.49 76.77 77.01 77.42 77.45 77.81 75.49 74.96 74.17 73.99 73.66 74.43
53.23 51.20 55.51 55.88 56.57 55.89 53.78 51.72 54.09 49.81 50.16 48.92 51.88 53.30 59.60 61.44 62.88 64.72 65.87 67.09 67.76 67.53 68.39 68.86 70.64 72.02 72.69 73.58 72.88 74.55 73.55 75.66 76.39 76.49 77.00 76.90 77.01 76.54 75.44 75.44 75.28 74.71 75.98 75.05
55.56 51.50 55.81 55.10 55.64 54.73 54.41 55.59 50.47 51.44 45.10 44.43 49.45 50.14 52.50 59.01 61.48 63.92 65.00 66.34 67.75 68.43 68.43 69.37 70.22 71.17 73.36 74.15 74.24 74.34 74.39 75.68 76.15 76.39 76.78 76.58 76.99 76.99 76.72 75.89 74.58 75.28 75.87 76.45
56.56 54.50 54.21 55.93 55.06 53.93 53.90 52.75 52.78 52.57 50.96 47.07 46.35 51.17 58.01 60.18 62.91 63.03 63.90 66.56 67.76 68.26 68.24 69.11 70.08 72.02 73.58 74.04 73.56 74.03 74.43 73.99 75.37 75.91 76.44 76.69 76.06 76.17 76.35 75.57 75.45 75.01 76.12 76.62
56.77 54.81 52.06 53.73 56.70 57.29 56.62 54.92 54.21 50.26 49.92 51.17 49.87 50.52 60.47 62.10 63.47 63.31 63.59 65.49 67.49 69.53 68.47 68.82 70.26 71.22 72.34 73.51 73.31 72.67 73.52 72.60 74.67 75.68 76.44 76.47 76.74 76.72 76.02 75.56 75.44 75.31 75.58 76.87
57.97 54.17 50.39 52.17 54.96 56.87 54.78 56.19 55.52 55.18 54.77 52.06 49.46 50.67 61.38 62.83 63.41 63.27 63.17 64.71 66.01 67.52 69.65 69.95 70.35 71.05 72.11 72.59 74.23 74.31 74.29 74.15 74.77 75.84 75.79 76.14 76.15 76.09 75.84 75.85 76.03 75.94 76.13 76.63
60.11 55.61 53.56 50.06 52.89 55.50 53.40 54.61 55.90 54.92 51.75 52.17 52.91 54.05 57.25 60.55 61.21 63.10 64.57 65.69 66.16 67.44 69.92 70.60 70.97 71.97 72.53 73.49 74.18 74.65 74.69 75.03 75.58 75.63 75.75 75.98 76.14 76.34 77.04 76.82 77.46 76.33 76.65 76.36
57.49 53.20 54.80 55.48 55.44 55.56 54.71 53.97 54.56 54.17 54.85 52.10 53.64 53.77 56.65 60.71 62.01 63.37 64.83 65.63 66.06 66.67 67.50 68.46 70.80 72.02 73.10 73.71 74.37 75.12 75.44 75.67 76.07 76.12 76.16 76.17 76.94 77.23 77.00 76.50 77.20 76.91 76.72 76.48
56.77 52.59 54.48 53.17 54.61 55.04 53.48 54.78 55.14 54.67 55.25 55.21 54.99 54.61 62.35 63.65 64.03 63.78 64.31 65.01 65.40 66.23 66.85 67.83 69.33 70.95 72.88 73.54 74.39 74.95 75.51 76.15 76.69 76.23 76.32 77.05 77.24 76.93 76.98 77.10 76.91 77.07 76.96 76.59
54.68 52.79 51.68 49.16 52.40 53.10 50.96 54.24 54.92 55.65 56.63 55.96 53.42 58.91 62.56 62.22 62.04 62.51 63.47 64.20 64.46 65.84 66.63 68.06 68.62 69.92 72.56 73.96 74.71 75.05 75.77 76.64 76.56 76.63 76.99 76.96 77.34 76.84 77.11 77.08 76.93 77.02 76.75 76.99
53.52 53.01 52.33 49.71 51.45 44.86 53.50 59.32 58.50 56.83 57.56 58.67 59.58 61.07 61.90 62.43 63.02 63.05 63.67 63.99 64.32 65.20 66.64 67.79 68.87 69.62 70.74 73.01 74.49 75.81 76.33 76.58 76.66 76.71 76.93 77.29 77.29 77.06 77.16 76.97 76.82 76.87 76.95 76.79
55.82 53.73 49.81 47.50 47.43 50.24 51.69 55.58 56.64 56.28 56.16 60.72 60.25 60.99 61.35 63.18 63.27 61.45 63.34 63.85 64.36 65.26 66.79 67.81 68.67 69.49 70.64 71.56 73.79 75.09 75.64 76.41 76.59 76.35 76.85 77.46 77.47 77.13 76.96 76.52 76.57 76.95 76.93 77.03
54.21 55.79 52.17 50.64 45.50 43.40 53.66 56.68 59.44 59.20 52.90 60.92 61.56 60.98 60.73 62.55 59.10 60.07 62.71 63.09 63.86 65.28 66.02 67.36 68.81 69.30 69.94 70.88 71.88 73.33 74.61 75.34 75.59 76.74 77.12 78.04 78.05 77.63 77.04 77.09 77.15 77.45 77.66 77.18
52.29 52.90 49.62 49.68 47.90 50.83 56.66 58.31 60.50 50.80 54.64 61.68 62.50 62.22 61.78 60.68 60.95 61.85 62.84 62.57 63.50 64.14 64.96 66.37 67.76 68.69 69.73 70.79 71.43 71.20 73.55 74.11 75.97 76.93 77.55 77.93 78.13 78.04 78.19 78.15 77.88 77.35 77.32 77.49
51.17 50.05 50.03 51.32 48.38 46.12 58.39 58.30 54.51 58.58 61.09 61.33 61.56 61.87 61.16 61.31 61.54 61.48 61.51 61.85 62.26 62.97 63.93 65.03 65.77 67.92 69.80 70.35 71.10 70.67 71.03 73.96 75.97 76.68 76.68 77.35 77.60 77.10 76.93 77.84 77.55 77.66 77.03 75.91
49.47 53.56 51.98 52.20 53.02 56.95 58.34 59.01 61.76 60.46 58.49 59.57 59.56 60.48 60.56 60.05 60.28 60.60 60.86 61.67 62.10 62.49 63.04 63.92 64.72 66.33 68.96 70.52 71.46 70.73 72.32 73.17 73.20 74.22 76.01 76.66 77.38 76.99 78.02 77.60 77.18 75.28 75.10 72.45
54.32 55.78 52.18 52.24 53.99 55.43 56.78 59.05 60.16 60.29 59.28 59.61 59.97 60.12 60.33 59.48 60.05 60.10 60.78 61.37 61.76 62.43 62.54 63.32 63.60 64.26 65.99 69.13 70.51 71.54 72.31 72.86 73.28 73.46 75.07 76.32 75.08 74.69 76.35 76.29 75.71 72.91 71.70 70.85
53.23 54.92 52.17 52.45 54.93 55.54 55.93 57.09 58.13 59.13 59.80 59.05 59.61 59.76 59.74 60.06 59.85 60.30 60.17 61.24 61.86 62.45 63.02 63.44 63.25 63.57 64.81 67.32 68.49 70.38 71.50 72.15 71.61 72.49 73.43 70.57 68.56 68.85 67.27 67.20 72.13 71.62 72.31 68.52
54.48 52.87 50.31 49.65 55.14 55.16 55.92 57.83 58.70 58.02 58.08 59.26 59.43 59.42 60.54 60.71 60.22 60.83 60.46 61.54 61.77 61.83 63.03 63.07 63.66 63.85 64.34 65.75 67.23 68.77 70.61 71.68 70.18 69.44 71.83 71.42 70.19 68.09 66.13 65.79 63.80 54.42 54.03 51.33
MSLP
1007.30 1006.75 1005.82 1005.40 1006.10 1006.53 1006.31 1005.68 1005.08 1004.59 1004.83 1004.89 1003.99 1003.60 1003.32 1003.56 1004.74 1004.92 1005.06 1005.75 1006.24 1006.57 1007.26 1008.18 1009.04 1009.63 1010.33 1010.97 1011.75 1012.54 1013.22 1013.94 1014.63 1015.23 1015.15 1016.18 1016.22 1016.62 1016.60 1016.02 1016.33 1016.59 1016.74 1017.05
1007.04 1006.07 1005.48 1006.18 1006.51 1006.35 1005.88 1005.27 1004.34 1004.32 1004.88 1004.75 1003.87 1003.23 1003.02 1003.26 1003.55 1004.56 1004.84 1005.10 1005.52 1005.86 1006.44 1007.52 1008.31 1008.95 1009.62 1010.38 1011.23 1012.11 1012.72 1013.67 1014.25 1014.40 1014.82 1015.01 1015.52 1015.93 1015.58 1015.79 1016.10 1016.53 1016.52 1016.74
1005.84 1005.41 1006.02 1006.10 1005.90 1005.70 1004.96 1004.51 1004.24 1004.35 1004.30 1004.07 1003.91 1002.19 1002.81 1003.58 1004.06 1004.32 1004.58 1004.70 1004.97 1005.42 1005.73 1006.51 1007.48 1008.17 1008.82 1009.70 1010.80 1011.62 1012.51 1013.07 1013.95 1014.03 1014.93 1015.27 1015.56 1015.63 1015.83 1015.69 1015.91 1016.11 1016.41 1016.55
1005.75 1005.58 1006.07 1005.75 1005.35 1005.18 1004.18 1004.44 1004.56 1004.18 1003.78 1003.19 1003.92 1002.33 1002.36 1002.92 1003.17 1004.01 1004.07 1004.29 1004.36 1004.83 1005.38 1005.52 1006.20 1007.39 1008.21 1009.17 1010.28 1011.17 1012.19 1012.79 1013.19 1013.89 1014.45 1014.97 1014.86 1014.60 1014.76 1015.20 1015.32 1015.42 1016.03 1016.23
1005.08 1005.43 1005.52 1005.14 1004.75 1004.86 1004.34 1004.60 1004.35 1003.98 1003.25 1002.98 1002.79 1002.41 1001.92 1002.51 1002.50 1002.93 1003.16 1003.46 1003.91 1004.06 1004.62 1005.18 1005.50 1006.20 1007.52 1009.00 1009.63 1010.42 1011.47 1012.28 1012.66 1013.08 1013.55 1014.56 1014.72 1014.52 1014.88 1014.62 1014.87 1015.56 1015.65 1016.09
1005.37 1005.34 1005.40 1004.73 1004.50 1004.68 1004.44 1004.22 1003.38 1003.09 1002.72 1001.83 1002.72 1002.79 1001.54 1002.00 1002.93 1002.88 1002.88 1002.96 1003.10 1003.51 1004.09 1004.84 1005.38 1006.04 1007.23 1008.68 1009.68 1010.26 1011.00 1011.57 1012.05 1012.79 1013.28 1013.91 1014.35 1014.06 1014.08 1014.57 1015.09 1015.25 1015.80 1016.05
1004.35 1004.17 1004.52 1004.73 1004.18 1003.64 1004.10 1003.04 1001.67 1001.26 1001.20 1001.02 1002.40 1002.79 1002.36 1002.40 1003.14 1003.28 1003.15 1002.99 1002.97 1003.25 1003.95 1004.57 1005.11 1006.00 1007.11 1008.06 1009.37 1010.05 1010.92 1011.68 1012.09 1012.24 1012.72 1013.21 1013.89 1014.29 1014.23 1014.47 1014.51 1014.59 1015.46 1015.71
1003.09 1003.21 1003.70 1003.88 1003.47 1002.94 1002.69 1002.58 1001.70 1001.15 1000.55 1000.63 1001.76 1001.60 1001.86 1002.57 1003.01 1003.13 1003.05 1003.20 1003.49 1003.87 1004.32 1004.21 1004.74 1006.04 1007.00 1007.91 1008.72 1009.35 1010.49 1010.74 1011.52 1011.79 1012.16 1012.80 1013.58 1013.91 1013.96 1014.25 1013.64 1013.85 1014.06 1014.32
1003.16 1002.83 1003.39 1003.53 1003.32 1003.27 1002.83 1002.44 1002.14 1001.26 1001.49 1001.30 1000.81 1001.25 1002.08 1001.92 1002.52 1002.67 1002.69 1002.70 1003.17 1004.03 1004.68 1004.88 1004.99 1005.56 1006.55 1007.49 1008.36 1009.19 1010.10 1010.35 1010.86 1011.22 1011.82 1012.19 1012.88 1013.42 1013.34 1013.69 1014.13 1013.84 1013.85 1013.93
1003.62 1003.11 1002.61 1003.07 1003.37 1003.43 1003.08 1002.79 1001.86 1001.27 1001.00 1000.75 1000.43 1000.97 1000.76 1001.96 1002.28 1002.66 1002.78 1002.86 1003.13 1003.58 1004.55 1004.84 1005.27 1005.84 1006.47 1007.03 1008.08 1009.03 1009.50 1009.91 1010.27 1010.60 1011.27 1011.71 1012.47 1013.15 1013.45 1013.72 1013.97 1013.75 1013.77 1014.20
1004.28 1003.80 1002.73 1002.84 1002.03 1001.63 1002.44 1002.08 1002.09 1001.49 1001.53 1000.73 1000.38 1000.29 1001.32 1002.18 1002.87 1003.16 1003.14 1003.29 1003.46 1003.71 1004.26 1004.71 1005.16 1005.89 1006.47 1006.89 1008.10 1008.74 1009.30 1009.71 1010.03 1010.27 1010.65 1011.26 1011.81 1012.33 1012.91 1013.13 1013.51 1013.81 1013.96 1014.05
1004.98 1003.76 1002.60 1001.82 1001.84 1002.43 1002.16 1001.62 1001.40 1000.98 1001.07 1001.34 1001.56 1001.02 1001.60 1002.57 1003.35 1003.86 1003.83 1003.89 1003.95 1004.07 1004.36 1004.98 1005.22 1005.63 1006.17 1006.67 1007.63 1008.67 1009.30 1009.66 1009.70 1009.92 1010.48 1010.93 1011.45 1011.85 1012.18 1012.57 1012.92 1013.32 1013.63 1013.88
1005.47 1004.30 1003.00 1001.75 1001.62 1002.15 1001.86 1001.66 1001.46 1001.04 1000.87 1000.93 1001.20 1001.14 1001.93 1002.85 1003.78 1004.52 1004.68 1004.61 1004.37 1004.53 1004.68 1004.94 1005.35 1005.75 1006.14 1006.65 1007.23 1007.98 1008.79 1009.14 1009.40 1009.62 1010.04 1010.50 1010.97 1011.35 1011.66 1012.03 1012.54 1012.92 1013.32 1013.59
1006.67 1004.70 1003.81 1002.82 1001.92 1002.57 1002.05 1001.85 1001.94 1001.46 1000.77 1000.32 1000.60 1001.05 1001.76 1003.69 1004.72 1005.24 1005.47 1005.33 1004.93 1004.74 1004.98 1005.15 1005.44 1005.79 1006.20 1006.39 1006.97 1007.67 1008.24 1008.52 1008.92 1009.27 1009.53 1009.81 1010.40 1010.83 1011.24 1011.58 1012.23 1012.66 1012.98 1013.29
1006.26 1005.11 1004.44 1003.82 1003.41 1003.35 1003.03 1002.51 1002.05 1001.94 1001.75 1001.36 1001.21 1001.77 1002.56 1004.61 1005.56 1006.09 1006.21 1005.99 1005.71 1005.53 1005.38 1005.52 1005.37 1005.68 1006.07 1006.39 1006.85 1007.45 1007.89 1008.61 1009.08 1009.24 1009.39 1009.55 1009.98 1010.44 1010.90 1011.27 1011.95 1012.11 1012.56 1012.86
1006.50 1005.80 1005.28 1004.41 1003.92 1003.46 1003.15 1002.73 1002.26 1001.89 1001.94 1001.73 1002.22 1002.49 1004.08 1005.55 1006.33 1006.64 1006.81 1006.67 1006.48 1006.38 1006.23 1006.18 1005.94 1005.75 1005.92 1006.19 1006.48 1006.95 1007.45 1007.97 1008.56 1008.89 1009.12 1009.37 1009.66 1010.19 1010.51 1010.85 1011.31 1011.70 1012.08 1012.40
1007.07 1006.27 1005.61 1004.35 1003.94 1003.52 1003.12 1002.51 1002.22 1001.96 1002.00 1002.41 1002.57 1003.47 1004.60 1005.83 1006.83 1007.38 1007.38 1007.33 1007.21 1007.08 1006.92 1006.66 1006.47 1006.38 1006.16 1006.13 1006.36 1006.57 1007.03 1007.46 1007.93 1008.42 1008.64 1009.05 1009.44 1009.77 1010.31 1010.65 1010.97 1011.28 1011.63 1011.94
1007.22 1007.09 1006.37 1005.03 1004.59 1003.85 1002.81 1003.71 1003.50 1003.23 1003.10 1003.29 1004.38 1005.33 1006.06 1006.56 1007.33 1007.87 1008.01 1007.94 1007.77 1007.66 1007.54 1007.31 1006.91 1006.63 1006.44 1006.23 1006.04 1006.37 1006.66 1006.98 1007.40 1007.88 1008.11 1008.56 1009.13 1009.40 1009.75 1010.15 1010.35 1010.63 1011.00 1011.35
1007.52 1007.33 1006.40 1005.61 1004.47 1003.69 1003.67 1004.39 1004.77 1004.61 1004.13 1005.57 1005.63 1006.28 1006.71 1006.95 1007.54 1008.11 1008.45 1008.53 1008.28 1008.10 1007.87 1007.73 1007.37 1007.05 1006.93 1006.78 1006.46 1006.35 1006.48 1006.70 1006.73 1006.96 1007.59 1007.88 1008.34 1008.88 1009.37 1009.80 1010.01 1010.29 1010.62 1010.88
1007.62 1007.63 1007.07 1005.70 1005.40 1004.39 1005.18 1005.94 1006.39 1006.21 1005.61 1006.72 1007.09 1007.33 1007.46 1007.22 1007.11 1008.06 1008.98 1008.86 1008.55 1008.44 1008.34 1007.96 1007.64 1007.30 1006.81 1006.74 1006.59 1006.40 1006.33 1006.49 1006.49 1006.35 1006.62 1007.25 1007.66 1008.10 1008.43 1009.04 1009.50 1009.74 1009.98 1010.22
1007.31 1007.24 1006.79 1005.96 1005.84 1005.27 1006.54 1006.89 1007.00 1006.81 1007.69 1007.98 1008.08 1008.11 1008.16 1008.12 1008.90 1009.32 1009.40 1009.14 1009.10 1008.93 1008.65 1008.35 1007.83 1007.34 1007.12 1007.10 1007.09 1006.76 1006.25 1006.07 1006.28 1006.41 1006.46 1006.60 1007.03 1007.63 1007.93 1008.28 1008.76 1009.26 1009.58 1009.61
1007.29 1006.85 1006.22 1006.33 1006.28 1006.58 1007.54 1007.38 1007.47 1008.40 1008.53 1008.60 1008.65 1008.82 1008.94 1009.10 1009.21 1009.44 1009.42 1009.33 1009.21 1009.10 1008.87 1008.54 1008.14 1007.72 1007.33 1007.20 1007.18 1006.92 1006.66 1006.54 1006.47 1006.53 1006.33 1006.30 1006.45 1006.77 1007.24 1007.95 1008.47 1008.77 1009.29 1009.86
1008.07 1007.71 1007.57 1007.29 1007.05 1008.06 1008.22 1008.38 1008.75 1008.82 1008.88 1009.08 1009.23 1009.14 1009.12 1009.14 1009.07 1009.28 1009.37 1009.36 1009.27 1009.23 1009.02 1008.75 1008.46 1007.99 1007.59 1007.26 1007.31 1007.16 1006.94 1006.85 1006.77 1006.52 1006.39 1006.39 1006.39 1006.27 1006.27 1006.90 1007.58 1008.25 1008.93 1009.60
1008.25 1008.86 1008.37 1008.29 1007.55 1008.19 1008.53 1008.71 1009.05 1009.10 1009.12 1009.28 1009.27 1009.12 1009.06 1008.90 1008.89 1008.94 1009.00 1009.01 1009.08 1009.19 1009.10 1008.86 1008.57 1008.17 1007.65 1007.36 1007.31 1007.30 1007.11 1007.03 1006.71 1006.41 1006.14 1006.02 1006.44 1006.28 1006.37 1006.47 1006.68 1007.43 1007.88 1008.26
1008.67 1009.37 1008.69 1008.45 1008.40 1008.41 1008.61 1008.68 1008.80 1009.07 1009.26 1009.32 1009.10 1008.86 1008.66 1008.55 1008.35 1008.30 1008.31 1008.49 1008.61 1008.66 1008.75 1008.74 1008.54 1008.19 1007.66 1007.35 1007.08 1007.02 1006.91 1006.89 1006.73 1006.40 1006.17 1006.89 1007.22 1007.39 1007.32 1007.60 1007.96 1007.48 1007.43 1007.64
1008.62 1008.95 1008.90 1008.16 1008.50 1008.98 1009.04 1009.15 1009.00 1009.13 1009.14 1009.03 1008.93 1008.71 1008.56 1008.39 1008.09 1007.95 1007.81 1007.90 1008.05 1008.12 1008.22 1008.23 1008.14 1007.90 1007.44 1007.08 1006.77 1006.51 1006.58 1006.58 1006.80 1006.82 1006.48 1006.48 1006.95 1007.64 1008.14 1008.18 1009.11 1009.63 1009.69 1009.55
Wind_Speed
9 11 13 9 3 7 9 11 11 12 7 8 10 13 15 8 13 15 14 14 16 18 18 17 17 16 15 15 15 15 14 13 10 9 9 5 8 6 7 7 7 7 7 7
8 13 11 1 5 8 9 11 9 7 2 7 12 17 9 9 10 14 14 14 15 15 15 16 16 17 17 16 16 15 16 15 13 9 8 7 8 8 9 7 8 8 7 6
13 6 3 6 8 10 13 9 8 11 11 6 11 3 6 4 1 7 13 15 15 15 16 17 17 17 17 16 16 15 15 14 12 12 7 3 5 6 5 7 8 8 8 8
8 5 7 9 8 7 14 4 8 10 10 8 5 7 6 5 4 4 7 13 16 17 16 17 19 17 17 15 14 14 15 14 13 14 10 12 8 9 8 8 9 8 9 9
7 7 9 10 9 6 10 5 11 10 13 5 5 10 9 1 6 5 3 8 14 17 18 17 18 17 13 11 14 15 15 14 14 14 14 9 9 7 5 7 10 9 7 7
11 3 7 11 8 8 10 14 16 12 9 9 6 7 7 7 10 5 4 5 7 14 16 15 15 12 11 14 8 13 15 16 16 15 14 12 12 9 8 9 7 7 5 6
8 14 9 9 14 14 11 16 9 5 8 2 7 3 6 5 10 6 10 9 4 7 15 15 13 14 14 16 16 14 13 13 15 15 14 14 13 12 9 9 9 9 6 7
6 10 13 10 8 11 6 10 8 5 4 4 6 4 7 4 3 3 4 6 3 3 9 15 17 15 15 14 17 17 13 15 16 15 15 12 12 7 8 10 10 9 10 9
2 4 7 8 5 7 8 8 8 10 7 9 4 3 14 4 4 3 7 8 7 7 9 13 15 17 17 16 12 17 14 15 15 15 13 12 11 11 9 8 10 8 6 5
3 7 3 9 4 4 9 6 7 5 4 5 4 4 8 8 6 6 9 10 11 5 10 12 12 13 13 15 15 14 16 16 15 15 13 12 12 12 10 10 11 11 9 8
8 7 4 5 12 3 7 9 7 8 6 9 5 4 9 7 8 7 8 9 10 9 6 9 12 12 13 12 11 12 12 12 13 13 12 12 12 13 13 12 11 11 10 10
2 8 9 13 6 5 10 12 9 7 6 2 7 5 9 9 8 7 7 8 8 7 4 5 9 12 13 13 14 11 10 10 11 11 11 12 12 12 13 12 12 13 12 11
3 7 9 14 13 10 8 8 11 9 7 8 8 2 7 11 9 8 8 9 7 7 4 6 6 7 9 12 12 13 12 12 10 10 12 12 12 13 13 13 13 12 11 11
3 13 11 13 16 8 7 8 10 14 11 9 8 10 9 11 8 8 8 9 7 5 5 4 5 7 8 9 12 12 12 11 11 12 13 12 12 13 12 13 12 12 12 11
7 13 15 13 14 13 13 17 17 13 16 15 14 6 4 8 7 7 7 8 8 7 7 7 3 7 8 9 8 10 10 11 10 10 11 12 12 12 11 12 12 12 12 12
6 10 9 16 16 14 16 16 17 17 17 12 16 10 12 9 6 8 9 9 9 9 8 7 6 3 7 9 10 10 10 10 11 12 12 11 11 11 11 10 11 11 11 12
9 8 8 16 15 9 15 18 19 19 17 13 15 7 7 8 7 8 8 9 10 10 9 9 7 5 5 7 9 11 12 11 12 12 12 11 11 11 11 12 12 12 12 12
9 7 8 9 5 13 2 6 6 9 12 7 3 6 6 5 9 8 9 9 10 11 9 9 9 8 6 6 7 9 11 13 13 12 12 11 11 11 12 13 13 13 12 12
9 8 6 6 10 10 9 5 6 7 3 2 2 3 4 6 11 11 10 7 8 9 9 8 8 9 8 7 6 6 9 11 13 13 13 12 13 12 11 12 12 11 11 11
4 9 8 4 9 8 9 5 4 3 7 5 2 4 6 3 9 11 7 7 8 8 9 11 11 9 8 8 7 7 8 10 13 13 14 13 13 14 14 14 13 12 11 11
8 7 12 9 9 1 6 5 2 10 6 4 5 5 6 5 6 5 3 4 6 8 10 10 11 10 9 7 7 8 8 8 10 11 12 13 14 13 13 13 12 12 11 9
6 6 6 6 8 11 6 3 7 6 4 4 4 5 5 4 2 2 4 5 7 7 9 11 10 11 11 9 8 8 7 7 6 9 11 13 14 13 12 13 11 11 10 9
6 4 7 5 7 4 4 5 2 3 2 3 5 7 7 8 8 7 7 8 8 9 9 9 10 12 11 10 8 10 9 7 8 9 10 12 13 14 12 15 14 12 10 10
5 5 7 5 4 2 8 5 5 4 5 8 10 11 11 13 12 11 10 10 9 10 11 11 11 12 13 12 10 10 8 8 8 9 11 10 8 10 14 13 13 12 13 13
7 2 7 11 13 12 11 7 9 9 10 13 14 15 14 15 16 16 14 13 13 12 11 11 12 12 14 13 14 11 9 9 7 8 3 3 3 1 2 2 6 9 11 8
8 8 9 9 8 9 12 13 8 12 13 11 11 12 14 15 17 18 17 15 15 14 13 12 13 14 15 14 14 14 10 9 6 6 6 6 7 7 5 6 4 8 4 1
Wind_Direction
201 231 222 244 40 300 294 295 297 303 14 302 302 302 306 254 210 230 210 198 201 202 194 194 198 196 202 203 200 200 199 193 197 193 195 180 209 200 193 215 214 213 232 205
204 230 242 230 253 264 265 280 293 306 107 296 330 312 3 345 219 229 231 214 210 208 200 190 198 200 203 202 206 205 208 193 201 190 207 205 196 213 200 201 191 221 212 208
252 73 67 208 223 246 249 263 315 336 320 223 320 74 35 62 282 238 228 228 220 216 204 197 197 208 204 201 201 202 209 201 197 217 180 192 191 205 186 209 202 207 216 220
248 199 234 236 240 254 282 58 296 308 307 338 343 340 62 38 88 195 229 227 225 212 215 215 201 202 210 202 198 201 204 201 197 200 191 188 211 202 195 195 206 205 208 217
106 190 215 234 243 298 288 301 302 293 289 287 160 279 109 128 29 353 236 224 224 225 216 210 218 197 201 208 196 193 193 194 198 192 199 188 200 201 213 213 193 215 191 227
271 240 267 253 274 243 283 273 257 245 265 243 81 306 67 32 0 342 343 313 241 212 211 212 210 191 187 184 195 195 189 192 191 199 193 191 203 221 193 204 173 200 193 216
199 220 224 243 248 234 239 260 273 243 192 49 79 231 323 35 13 340 327 341 287 213 196 198 190 188 185 182 189 197 188 195 198 192 197 198 209 208 196 201 210 185 182 223
292 158 196 169 259 310 262 312 303 293 263 39 130 350 62 15 341 286 1 18 13 182 197 202 183 185 186 189 186 191 177 191 198 198 198 199 204 199 205 201 208 201 194 201
233 193 144 201 268 261 132 232 2 288 202 249 74 24 109 77 114 83 53 46 48 144 193 201 191 187 180 189 188 189 192 190 194 197 201 196 197 217 207 197 211 211 206 204
349 271 196 126 201 199 270 3 238 196 273 282 78 269 52 43 79 47 39 27 27 56 176 197 198 200 191 189 191 189 195 195 194 196 197 195 199 197 207 200 208 214 204 215
276 255 155 206 209 293 175 223 223 299 305 312 256 96 74 48 46 33 33 22 22 32 154 185 192 191 193 199 171 193 194 198 198 201 192 196 203 199 200 206 204 216 219 217
222 290 266 273 93 293 274 287 275 255 187 212 308 319 69 55 74 45 30 21 19 33 83 173 193 192 201 197 171 186 189 197 203 198 197 197 198 205 203 210 205 207 217 220
30 253 273 249 175 187 230 210 263 280 296 262 290 90 108 73 74 52 34 9 353 359 93 142 172 195 205 195 205 191 189 193 196 195 196 198 202 201 209 208 213 210 212 222
245 268 270 285 318 334 285 233 232 270 282 291 227 288 324 65 51 42 35 21 9 23 64 92 167 189 210 208 197 198 194 184 188 193 200 193 203 208 213 211 208 209 213 218
277 273 274 273 272 275 277 275 272 249 273 281 303 314 14 78 59 45 31 39 43 26 17 7 264 189 199 201 209 212 204 203 204 205 206 201 201 206 209 205 208 207 212 215
277 275 276 270 267 261 267 261 258 256 252 257 266 273 95 106 89 62 50 42 38 21 13 5 345 274 211 204 198 201 206 205 203 206 210 203 197 203 209 206 203 204 210 215
278 278 267 267 269 280 267 251 247 254 249 247 255 62 141 110 91 56 46 43 33 21 5 356 346 326 305 216 209 203 201 196 196 207 204 199 197 194 199 197 198 203 209 215
255 250 260 278 283 248 339 16 337 286 280 271 269 65 80 119 108 76 52 35 34 19 6 352 342 330 321 307 231 211 200 195 192 201 199 192 197 198 194 197 198 198 203 209
227 242 264 255 242 271 223 76 344 334 203 76 262 101 65 147 141 80 44 29 30 18 1 347 338 338 323 310 308 255 222 212 197 193 199 193 193 196 195 202 200 199 202 204
209 231 251 220 280 271 67 50 347 303 233 72 41 48 25 161 217 78 30 15 15 3 354 349 339 323 329 335 304 279 245 229 227 203 191 197 195 195 189 195 201 201 201 204
198 219 233 235 255 298 48 2 305 240 56 39 6 12 19 22 9 19 354 7 9 357 348 339 332 329 335 325 322 290 281 256 246 230 206 194 196 202 198 192 194 197 203 207
255 249 218 241 268 246 28 224 307 45 78 12 6 3 342 336 318 300 312 324 331 339 338 340 332 326 326 325 312 297 295 304 297 259 227 205 196 198 190 194 193 194 193 194
251 298 335 297 36 73 352 326 34 340 3 11 326 316 312 303 300 307 299 306 309 312 320 323 324 320 311 317 320 308 316 299 293 270 242 229 211 200 190 185 185 188 171 177
212 232 253 304 174 324 329 312 276 258 297 315 306 301 296 292 292 291 290 294 294 293 296 305 304 301 303 304 309 313 315 304 287 271 254 225 215 204 200 197 179 170 177 178
303 325 277 272 268 280 282 301 284 282 292 296 294 285 285 289 288 291 291 293 293 293 287 281 280 282 281 289 296 296 310 307 300 286 261 82 86 39 138 108 227 196 194 180
257 250 267 288 327 300 298 295 286 301 298 295 296 292 290 289 287 288 284 287 289 286 288 286 280 276 275 277 279 289 287 289 291 266 233 199 185 184 199 167 172 21 14 35